CST,Max TemperatureF,Mean TemperatureF,Min TemperatureF,Max Dew PointF,MeanDew PointF,Min DewpointF,Max Humidity, Mean Humidity, Min Humidity, Max Sea Level PressureIn, Mean Sea Level PressureIn, Min Sea Level PressureIn, Max VisibilityMiles, Mean VisibilityMiles, Min VisibilityMiles, Max Wind SpeedMPH, Mean Wind SpeedMPH, Max Gust SpeedMPH,PrecipitationIn, CloudCover, Events, WindDirDegrees
2014-2-1,44,35,26,45,32,25,100,100,93,30.12,29.89,29.72,7,2,0,16,8,22,0.05,8,Fog-Rain-Snow,336
2014-2-2,26,20,14,23,19,12,100,89,74,30.29,30.21,30.12,10,8,1,16,12,23,0.00,5,Snow,11
2014-2-3,33,20,8,18,13,7,100,68,41,30.29,30.22,30.12,10,10,10,15,4,21,0.00,0,,106
2014-2-4,30,27,24,28,23,14,100,83,51,30.12,29.97,29.86,10,5,0,21,11,30,0.07,8,Snow,90
2014-2-5,24,14,5,23,7,0,100,78,67,30.56,30.39,30.00,10,9,3,18,13,29,0.00,5,Snow,332
2014-2-6,12,8,5,0,-1,-4,78,67,53,30.57,30.50,30.39,10,10,10,12,7,17,0.00,3,,7
2014-2-7,23,14,5,16,6,-4,80,68,58,30.39,30.29,30.18,10,10,10,10,5,,0.00,6,,109
2014-2-8,32,26,21,28,24,16,100,90,80,30.18,30.11,30.02,10,8,3,8,5,,0.00,8,Snow,164
2014-2-9,30,26,21,28,25,18,100,87,74,30.26,30.17,30.11,10,7,4,14,6,18,0.00,8,,16
2014-2-10,21,18,14,18,12,9,93,75,58,30.38,30.32,30.25,10,9,2,12,9,20,0.00,6,Snow,23
2014-2-11,28,19,10,10,6,3,79,58,43,30.40,30.31,30.20,10,10,10,9,6,,0.00,2,,50
2014-2-12,39,28,17,25,14,3,86,57,41,30.20,30.07,29.96,10,10,10,8,5,,0.00,1,,176
2014-2-13,50,36,23,32,28,21,100,75,47,29.97,29.88,29.77,10,8,4,21,6,26,0.00,0,,219
2014-2-14,46,34,23,37,30,21,93,76,61,30.12,29.85,29.64,10,10,10,25,10,32,0.00,4,Rain,302
2014-2-15,55,37,19,32,26,18,100,66,33,30.09,30.01,29.86,10,9,5,24,7,29,0.00,2,,193
2014-2-16,55,42,30,32,30,28,93,64,38,30.13,30.04,29.88,10,10,10,21,6,29,0.00,1,,98
2014-2-17,55,47,39,45,31,27,76,55,33,30.11,29.96,29.79,10,10,10,28,14,36,0.00,3,,191
2014-2-18,68,54,41,32,28,25,66,42,24,30.08,29.92,29.77,10,10,10,26,11,32,0.00,0,,195
2014-2-19,60,48,37,46,32,23,81,51,25,30.02,29.86,29.62,10,10,10,20,10,29,0.00,3,,114
2014-2-20,68,52,35,57,42,19,100,72,42,29.91,29.64,29.42,10,10,3,36,15,47,0.06,6,Rain-Thunderstorm,213
2014-2-21,57,44,30,23,18,12,69,40,18,30.02,29.97,29.92,10,10,10,22,11,33,0.00,0,,225
2014-2-22,64,52,39,32,26,19,65,41,26,29.97,29.90,29.81,10,10,10,25,11,33,0.00,0,,179
2014-2-23,46,37,28,32,24,18,93,63,34,30.26,30.10,29.91,10,10,10,18,10,26,0.00,2,,29
2014-2-24,46,35,24,21,17,12,74,49,33,30.28,30.18,30.06,10,10,10,14,7,18,0.00,3,,97
2014-2-25,39,31,23,23,18,10,74,59,45,30.32,30.21,30.15,10,10,10,22,8,26,0.00,2,,11
2014-2-26,32,23,14,10,5,-4,79,53,23,30.34,30.20,30.04,10,10,3,22,12,31,0.00,3,Snow,313
2014-2-27,44,32,19,16,11,5,63,45,27,30.09,29.99,29.88,10,10,10,10,7,,0.00,0,,120
2014-2-28,42,36,30,34,26,14,93,66,48,29.98,29.87,29.81,10,10,10,18,11,25,0.00,5,Rain,129